Message
Cliquez sur le résultat pour voir la partie ou sur les pseudos pour voir leur fiche.
Les parties sont maintenant conservées 3 ans dans la base.
Cliquez ici pour télécharger les parties au format PGN de papinou en 2020.
Cliquez ici pour télécharger les parties au format PGN de papinou en 2019.
Cliquez ici pour télécharger les parties au format PGN de papinou en 2018.
Cliquez ici pour télécharger les parties au format PGN de papinou en 2017. ( Depuis le 21/06/2017 les parties étaient conservées moins longtemps avant )


Date
Tournoi
Blancs
Noirs
Res.
Elo Adv.
Rd Adv.
Var. RD
Var. Elo
19/06/18 20:51Coupe Niveau 1senegauloispapinou0-1
13/06/18 20:43Tournoi n17866kaptenpapinou1-0
07/06/18 01:25Coupe Niveau 2elghribipapinou1-0
29/05/18 01:50Défipapinousuperman1-0
15/05/18 21:40Coupe Niveau 3elghribipapinou1-0
14/05/18 12:18Coupe Niveau 3papinouelghribi0-1
08/05/18 01:23Tournoi échelle championspapinouelghribi0-1
06/05/18 23:50Tournoi n17856papinouvulcain141-0
06/05/18 15:51Coupe Niveau 2papinouverson0-1
05/05/18 12:51Tournoi n17921geantvertpapinou1/2-1/2
02/05/18 19:11Coupe Niveau 2papinouyatman0-1
28/04/18 13:08Tournoi n17921papinouarno0-1
15/04/18 21:38Tournoi n17921pataupapinou1-0
13/04/18 18:26Défipapinouberjay1-0
13/04/18 12:25Tournoi n17921papinouintrigue0-1
31/03/18 03:13Tournoi n17856papinouholyhour1-0
29/03/18 20:36Défipapinouchobi0-1
26/03/18 12:31Coupe Niveau 1papinoujlr1-0
25/03/18 15:40Tournoi n17633papinoujellel671-0
25/03/18 11:48Coupe Niveau 1papinouverson0-1
24/03/18 09:38Défipapinoumatsonic0-1
22/03/18 20:25Coupe Niveau 1skalfapapinou0-1
21/03/18 18:46Tournoi n17866arnopapinou1-0
21/03/18 12:50Coupe Niveau 1yyygpapinou0-1
19/03/18 21:35Coupe Niveau 1flypapinou1-0
19/03/18 17:26Coupe Niveau 2intriguepapinou0-1
19/03/18 15:38Coupe Niveau 3papinouchrislee760-1
18/03/18 19:31Tournoi n17866papinoulegrillon0-1
18/03/18 11:48Tournoi n17856versonpapinou1-0
16/03/18 16:56Défipapinoupatau0-1
13/03/18 01:31Coupe Niveau 1yann56papinou0-1
11/03/18 10:53Tournoi n17866papinouthierry060-1
11/03/18 08:15Coupe Niveau 1papinoujlr1-0
10/03/18 12:05Défichobipapinou0-1
08/03/18 13:06Tournoi n17763papinoumage1-0
05/03/18 19:01Défijpjaypapinou0-1
04/03/18 13:18Tournoi n17801papinouleredoutable0-1
03/03/18 14:56Défipapinoutemistocles1-0
03/03/18 12:30Coupe Niveau 1papinouaugustin1-0
02/03/18 22:56Tournoi n17801legrillonpapinou1-0
02/03/18 22:56Tournoi n17856simerpapinou0-1
02/03/18 18:51Coupe Niveau 3senegauloispapinou1-0
01/03/18 18:48Défipapinousuperman1-0
01/03/18 18:48Défigoboispapinou0-1
28/02/18 20:40Coupe Niveau 2papinouverson1/2-1/2
28/02/18 20:40Coupe Niveau 3elghribipapinou1-0
28/02/18 20:40Coupe Niveau 2elghribipapinou1-0
28/02/18 08:01Tournoi n17778papinougonzok671-0
26/02/18 19:11Coupe Niveau 1papinoupatau0-1
25/02/18 23:25Tournoi n17801papinouvachefolle0-1
25/02/18 01:31Coupe Niveau 3elghribipapinou1/2-1/2
23/02/18 22:13Tournoi n17778mojopapinou1-0
20/02/18 23:35Tournoi n17801simerpapinou1-0
19/02/18 23:16Tournoi n17778papinouarno1-0
19/02/18 19:13Coupe Niveau 1seb1papinou0-1
18/02/18 22:41Tournoi n17763blackbishoppapinou1-0
17/02/18 14:45Tournoi n17633clemmpapinou1/2-1/2
16/02/18 12:15Tournoi n17763papinouarno1-0
14/02/18 10:51Tournoi n174391thiboupapinou0-1
13/02/18 20:10Tournoi n17778simerpapinou0-1
10/02/18 15:40Tournoi n17763spectrepapinou1-0
08/02/18 21:31Tournoi n17692legrillonpapinou0-1
08/02/18 13:18Coupe Niveau 1tiounetpapinou0-1
08/02/18 11:18Coupe Niveau 2papinouspectre1-0
06/02/18 14:51Tournoi n17692papinouleredoutable0-1
06/02/18 14:51Coupe Niveau 2papinougtx1-0
06/02/18 12:48Coupe Niveau 1papinoujlr1-0
04/02/18 21:16Tournoi n17633joraqpapinou1-0
04/02/18 19:28Tournoi n17633papinouintrigue0-1
04/02/18 19:28Coupe Niveau 1sidarkpapinou1-0
04/02/18 13:15Tournoi n17692tiounetpapinou1/2-1/2
03/02/18 16:03Défiasvel69papinou0-1
01/02/18 19:33Coupe Niveau 1davchesspapinou1-0
01/02/18 19:33Tournoi n17587legrillonpapinou1/2-1/2
29/01/18 20:00Tournoi n17692papinouyyyg1-0
25/01/18 16:48Coupe Niveau 2versonpapinou1-0
23/01/18 19:15Coupe Niveau 1papinoujlr1-0
23/01/18 02:13Tournoi n17592arnopapinou0-1
19/01/18 06:45Tournoi n17535papinousvargos1-0
12/01/18 17:23Tournoi n17592lycharpapinou1-0
12/01/18 09:16Tournoi n17529papinoulegrillon1-0
10/01/18 13:40Tournoi n17587papinoukoi341-0
09/01/18 16:56Coupe Niveau 2papinoujmarcboury1-0
09/01/18 16:56Tournoi n17592papinousimer1/2-1/2
07/01/18 23:05Tournoi n17587papinouarno1-0
07/01/18 19:03Tournoi n17592papinoutiounet1-0
07/01/18 16:45Tournoi n17587zodiacpapinou0-1
06/01/18 22:35Coupe Niveau 1theking2papinou1-0
04/01/18 13:00Tournoi n17522clemmpapinou0-1
03/01/18 22:18Coupe Niveau 1papinouonly0-1
03/01/18 22:18Tournoi n17522papinoulegrillon1-0
03/01/18 22:18Tournoi n17529papinoutiounet0-1
03/01/18 22:18Tournoi n17561papinouupsalin1/2-1/2
03/01/18 20:26Coupe Niveau 1elghribipapinou1-0
02/01/18 21:01Tournoi n17561lycharpapinou1-0
02/01/18 18:43Coupe Niveau 2qasarpapinou1-0
02/01/18 14:41Tournoi n17529kalapapinou0-1
31/12/17 15:41Tournoi n17522papinoughostdog1/2-1/2
31/12/17 15:41Coupe Niveau 1bricekillerpapinou0-1
31/12/17 13:38Tournoi n17561papinousimer0-1

Page suivante...